Weather History for Omaha Millard, NE

Change the Weather History Date:

Friday, November 8, 2013

  Actual Average (KOMA) Record (KOMA)
Temperature  
Mean Temperature 46 °F 43 °F  
Max Temperature 62 °F 53 °F 82 °F (1999)
Min Temperature 29 °F 33 °F 7 °F (1991)
Degree Days  
Heating Degree Days 20 22  
Month to date heating degree days 162  
Since 1 July heating degree days 647  
Cooling Degree Days 0 0  
Month to date cooling degree days 0  
Year to date cooling degree days 1112  
Moisture  
Dew Point 31 °F    
Average Humidity 55    
Maximum Humidity 85    
Minimum Humidity 31    
Precipitation  
Precipitation 0.00 in 0.06 in 1.10 in (1977)
Month to date precipitation 0.49  
Year to date precipitation 28.43  
Snow  
Snow 0.00 in 0.10 in - ()
Month to date snowfall 0.3  
Since 1 July snowfall 0.6  
Snow Depth -    
Sea Level Pressure  
Sea Level Pressure 29.94 in    
Wind  
Wind Speed 7 mph (SSE)    
Max Wind Speed 22 mph    
Max Gust Speed 32 mph    
Visibility 10 miles    
Events      
T = Trace of Precipitation, MM = Missing Value Source: NWS Daily Summary

Daily Weather History Graph

Daily Weather History Graph

Search for Another Location

Airport:

Trip Planner

Search our weather history database for the weather conditions in past years. The results will help you decide how hot, cold, wet, or windy it might be!

Date:

Astronomy

Nov. 08, 2013 Rise Set
Actual Time 7:04 AM CST 5:11 PM CST
Civil Twilight 6:35 AM CST 5:40 PM CST
Nautical Twilight 6:02 AM CST 6:13 PM CST
Astronomical Twilight 5:29 AM CST 6:45 PM CST
Moon 12:00 PM CST (11/8) 10:34 PM CST (11/8)
Length of Visible Light 11h 05m
Length of Day
10h 07m
Waxing Crescent, 33% of the Moon is Illuminated
Nov 8
Waxing Crescent
Nov 9
First Quarter
Nov 17
Full
Nov 25
Last Quarter
Dec 2
New

Hourly Weather History & Observations

Time (CST) Temp. Windchill Dew Point Humidity Pressure Visibility Wind Dir Wind Speed Gust Speed Precip Events Conditions
12:15 AM 29.8 °F - 25.7 °F 85% 30.27 in 10.0 mi Calm Calm - N/A   Clear
12:35 AM 30.2 °F - 25.5 °F 83% 30.26 in 10.0 mi Calm Calm - N/A   Clear
12:55 AM 30.7 °F - 25.5 °F 81% 30.25 in 10.0 mi Calm Calm - N/A   Clear
1:15 AM 31.1 °F - 25.7 °F 80% 30.24 in 10.0 mi Calm Calm - N/A   Clear
1:35 AM 31.6 °F 28.3 °F 25.5 °F 78% 30.23 in 10.0 mi SE 3.5 mph - N/A   Clear
1:55 AM 32.0 °F 28.7 °F 25.5 °F 77% 30.22 in 10.0 mi SSE 3.5 mph - N/A   Clear
2:15 AM 32.4 °F 27.9 °F 25.3 °F 75% 30.21 in 10.0 mi SE 4.6 mph - N/A   Clear
2:35 AM 33.1 °F 28.7 °F 25.7 °F 74% 30.20 in 10.0 mi SE 4.6 mph - N/A   Clear
2:55 AM 32.5 °F 27.1 °F 26.1 °F 77% 30.20 in 10.0 mi SSE 5.8 mph - N/A   Clear
3:15 AM 34.9 °F 30.8 °F 26.1 °F 70% 30.20 in 10.0 mi SE 4.6 mph - N/A   Clear
3:35 AM 35.6 °F 31.7 °F 26.4 °F 69% 30.18 in 10.0 mi SE 4.6 mph - N/A   Clear
3:55 AM 34.9 °F 29.9 °F 27.5 °F 74% 30.17 in 10.0 mi SE 5.8 mph - N/A   Clear
4:15 AM 36.1 °F 29.9 °F 27.3 °F 70% 30.16 in 10.0 mi SE 8.1 mph - N/A   Clear
4:35 AM 36.5 °F 30.3 °F 27.5 °F 70% 30.15 in 10.0 mi SE 8.1 mph - N/A   Clear
4:55 AM 37.6 °F 31.0 °F 26.6 °F 65% 30.13 in 10.0 mi SE 9.2 mph - N/A   Clear
5:15 AM 37.9 °F 30.9 °F 26.4 °F 63% 30.12 in 10.0 mi SE 10.4 mph - N/A   Clear
5:35 AM 38.7 °F 32.4 °F 26.1 °F 61% 30.11 in 10.0 mi SE 9.2 mph - N/A   Clear
5:55 AM 39.2 °F 32.5 °F 26.2 °F 60% 30.09 in 10.0 mi SE 10.4 mph - N/A   Clear
6:15 AM 39.4 °F 32.3 °F 26.2 °F 59% 30.08 in 10.0 mi SE 11.5 mph 16.1 mph N/A   Clear
6:35 AM 39.2 °F 32.0 °F 26.6 °F 61% 30.06 in 10.0 mi SE 11.5 mph - N/A   Clear
6:55 AM 39.0 °F 32.8 °F 26.6 °F 61% 30.05 in 10.0 mi SE 9.2 mph - N/A   Clear
7:15 AM 39.4 °F 31.4 °F 27.3 °F 62% 30.04 in 10.0 mi SE 13.8 mph - N/A   Clear
7:35 AM 40.8 °F 32.6 °F 27.9 °F 60% 30.03 in 10.0 mi SE 16.1 mph 19.6 mph N/A   Clear
7:55 AM 41.4 °F 34.0 °F 28.0 °F 59% 30.02 in 10.0 mi SE 13.8 mph - N/A   Clear
8:15 AM 42.1 °F 34.9 °F 28.8 °F 59% 30.01 in 10.0 mi SSE 13.8 mph 25.3 mph N/A   Clear
8:35 AM 42.6 °F 34.6 °F 29.5 °F 60% 30.00 in 10.0 mi SSE 17.3 mph 21.9 mph N/A   Clear
8:55 AM 42.8 °F 35.4 °F 30.0 °F 61% 29.98 in 10.0 mi SSE 15.0 mph 23.0 mph N/A   Clear
9:15 AM 43.5 °F 36.4 °F 30.7 °F 61% 29.97 in 10.0 mi SE 15.0 mph 20.7 mph N/A   Clear
9:35 AM 44.2 °F 36.2 °F 31.1 °F 60% 29.95 in 10.0 mi SE 19.6 mph 25.3 mph N/A   Clear
9:55 AM 46.2 °F 38.3 °F 31.3 °F 56% 29.92 in 10.0 mi SSE 21.9 mph 28.8 mph N/A   Clear
10:15 AM 48.2 °F - 32.0 °F 54% 29.91 in 10.0 mi SSE 18.4 mph 24.2 mph N/A   Clear
10:35 AM 50.4 °F - 32.4 °F 50% 29.89 in 10.0 mi SSE 17.3 mph 24.2 mph N/A   Clear
10:55 AM 52.3 °F - 32.4 °F 47% 29.86 in 10.0 mi SSE 19.6 mph 31.1 mph N/A   Clear
11:15 AM 54.1 °F - 32.9 °F 45% 29.85 in 10.0 mi South 19.6 mph 29.9 mph N/A   Clear
11:35 AM 55.4 °F - 32.9 °F 43% 29.84 in 10.0 mi South 17.3 mph 28.8 mph N/A   Clear
11:55 AM 57.0 °F - 32.2 °F 39% 29.82 in 10.0 mi South 17.3 mph 32.2 mph N/A   Clear
12:15 PM 58.5 °F - 32.0 °F 37% 29.81 in 10.0 mi South 17.3 mph 27.6 mph N/A   Clear
12:35 PM 59.4 °F - 32.0 °F 36% 29.78 in 10.0 mi South 13.8 mph 25.3 mph N/A   Clear
12:55 PM 60.1 °F - 32.0 °F 35% 29.77 in 10.0 mi South 12.7 mph 27.6 mph N/A   Clear
1:15 PM 60.8 °F - 31.6 °F 33% 29.76 in 10.0 mi SSW 17.3 mph 27.6 mph N/A   Clear
1:35 PM 62.1 °F - 31.1 °F 31% 29.76 in 10.0 mi South 18.4 mph 31.1 mph N/A   Clear
1:55 PM 62.6 °F - 32.0 °F 32% 29.75 in 10.0 mi SSW 13.8 mph 23.0 mph N/A   Clear
2:15 PM 62.8 °F - 32.0 °F 32% 29.74 in 10.0 mi SSW 10.4 mph 25.3 mph N/A   Clear
2:35 PM 62.8 °F - 32.0 °F 32% 29.75 in 10.0 mi SSW 16.1 mph 23.0 mph N/A   Clear
2:55 PM 62.2 °F - 32.2 °F 32% 29.74 in 10.0 mi SSW 9.2 mph 21.9 mph N/A   Clear
3:15 PM 61.9 °F - 32.0 °F 33% 29.73 in 10.0 mi SSW 11.5 mph 21.9 mph N/A   Clear
3:35 PM 61.7 °F - 32.9 °F 34% 29.74 in 10.0 mi SSW 9.2 mph 17.3 mph N/A   Clear
3:55 PM 61.7 °F - 32.5 °F 33% 29.74 in 10.0 mi SSW 5.8 mph 11.5 mph N/A   Clear
4:15 PM 61.2 °F - 32.7 °F 34% 29.76 in 10.0 mi SW 5.8 mph - N/A   Clear
4:35 PM 60.8 °F - 32.7 °F 35% 29.74 in 10.0 mi SSW 6.9 mph - N/A   Clear
4:55 PM 60.8 °F - 32.9 °F 35% 29.74 in 10.0 mi SSW 4.6 mph - N/A   Clear
5:15 PM 60.3 °F - 33.3 °F 36% 29.76 in 10.0 mi SW 4.6 mph - N/A   Clear
5:35 PM 59.9 °F - 33.6 °F 37% 29.76 in 10.0 mi SW 3.5 mph - N/A   Clear
5:55 PM 59.2 °F - 34.0 °F 39% 29.78 in 10.0 mi Calm Calm - N/A   Clear
6:15 PM 58.5 °F - 34.2 °F 40% 29.79 in 10.0 mi Calm Calm - N/A   Clear
6:35 PM 57.7 °F - 34.7 °F 42% 29.81 in 10.0 mi Calm Calm - N/A   Clear
6:55 PM 55.6 °F - 35.2 °F 46% 29.81 in 10.0 mi Calm Calm - N/A   Clear
7:15 PM 55.2 °F - 35.8 °F 48% 29.81 in 10.0 mi Calm Calm - N/A   Clear
7:35 PM 53.4 °F - 36.5 °F 53% 29.83 in 10.0 mi Calm Calm - N/A   Clear
7:55 PM 52.9 °F - 37.0 °F 55% 29.83 in 10.0 mi WNW 6.9 mph - N/A   Clear
8:15 PM 54.1 °F - 37.4 °F 53% 29.84 in 10.0 mi Calm Calm - N/A   Clear
8:35 PM 52.0 °F - 37.4 °F 58% 29.85 in 10.0 mi Calm Calm - N/A   Clear
8:55 PM 52.7 °F - 37.6 °F 56% 29.86 in 10.0 mi NW 4.6 mph - N/A   Clear
9:15 PM 51.1 °F - 37.4 °F 60% 29.87 in 10.0 mi WNW 4.6 mph - N/A   Clear
9:35 PM 51.6 °F - 37.9 °F 60% 29.88 in 10.0 mi NNW 3.5 mph - N/A   Clear
9:55 PM 50.2 °F - 37.6 °F 62% 29.89 in 10.0 mi NW 3.5 mph - N/A   Clear
10:15 PM 48.6 °F - 37.4 °F 65% 29.90 in 10.0 mi NW 4.6 mph - N/A   Clear
10:35 PM 48.4 °F - 37.4 °F 66% 29.91 in 10.0 mi Calm Calm - N/A   Clear
10:55 PM 46.8 °F - 37.0 °F 69% 29.91 in 10.0 mi Calm Calm - N/A   Clear
11:15 PM 44.2 °F - 36.7 °F 75% 29.91 in 10.0 mi Calm Calm - N/A   Clear
11:35 PM 42.1 °F - 35.8 °F 78% 29.91 in 10.0 mi Calm Calm - N/A   Clear
11:55 PM 41.5 °F - 36.1 °F 81% 29.91 in 10.0 mi Calm Calm - N/A   Clear